[[[{"header":{"parameterUnit":"kt","parameterCategory":2,"dx":1,"dy":1,"la1":30.253999710083008,"la2":30.299108505249023,"lo1":-89.0895004272461,"lo2":-89.04439544677734,"nx":28,"ny":28,"refTime":"2022-09-19T21:00:00:Z","depth":"0","parameterNumber":2,"parameterNumberName":"U-component_of_CURRENTS"},"data":[-0.0119,-0.0039,-0.005,0.0015,-0.0008,0.0049,0.0063,0.0127,0.0232,0.0567,0.089,0.1044,0.155,0.224,0.238,0.2136,0.1927,0.1919,0.1671,0.1536,0.1444,0.1355,0.1487,0.2246,0.2248,0.205,0.2053,0.2055,-0.0223,-0.0211,-0.0202,-0.0226,-0.0218,-0.0295,-0.0313,-0.0263,-0.0181,-0.0058,0.0042,0.0561,0.0811,0.0821,0.1041,0.1004,0.0634,0.0973,0.0954,0.0828,0.0358,0.0468,0.1022,0.1022,0.1022,0.1021,0.1021,0.1021,-0.0417,-0.0384,-0.042,-0.0426,-0.0462,-0.0477,-0.045,-0.0493,-0.0471,-0.04,-0.044,-0.0244,0.0017,-0.0055,-0.0261,-0.0153,-0.0414,-0.0092,0.0027,-0.0125,-0.007,-0.061,-0.0339,-0.0343,-0.0346,-0.0349,-0.0352,0,-0.0575,-0.0606,-0.0628,-0.0648,-0.0665,-0.0697,-0.0738,-0.0734,-0.0849,-0.082,-0.0762,-0.072,-0.0719,-0.0605,-0.0709,-0.0831,-0.0889,-0.1004,-0.0807,-0.0258,-0.0273,-0.0316,-0.1027,-0.08,-0.0806,-0.0811,-0.0815,-0.0818,-0.0754,-0.0749,-0.084,-0.0845,-0.0886,-0.0917,-0.0936,-0.1064,-0.107,-0.1107,-0.1075,-0.1075,-0.1041,-0.1109,-0.1218,-0.1312,-0.1325,-0.1154,-0.1234,-0.0973,-0.0831,-0.0936,-0.0979,-0.089,-0.0881,-0.0873,-0.0867,0,-0.0839,-0.0933,-0.0946,-0.1059,-0.1087,-0.1079,-0.117,-0.1169,-0.125,-0.1232,-0.124,-0.1339,-0.1348,-0.1479,-0.1587,-0.1678,-0.1573,-0.1727,-0.141,-0.1366,-0.1086,-0.0961,-0.0779,-0.0797,-0.162,-0.1616,-0.1612,0,-0.1007,-0.1011,-0.1139,-0.1147,-0.1153,-0.1273,-0.1271,-0.1343,-0.1413,-0.1407,-0.1534,-0.1519,-0.1695,-0.1715,-0.1836,-0.1834,-0.1891,-0.1911,-0.1902,-0.1666,-0.1633,-0.1437,-0.1305,-0.2081,-0.2081,-0.2082,-0.2082,0,-0.1104,-0.1187,-0.1204,-0.1239,-0.1362,-0.1378,-0.1436,-0.1523,-0.1551,-0.1618,-0.1612,-0.1721,-0.1729,-0.1829,-0.1909,-0.1966,-0.1951,-0.2039,-0.1949,-0.1938,-0.1704,-0.1672,-0.1325,-0.2083,-0.2083,-0.2083,-0.2084,0,-0.1241,-0.1285,-0.1307,-0.1405,-0.1419,-0.1451,-0.1518,-0.1573,-0.166,-0.1704,-0.1771,-0.1831,-0.1892,-0.1956,-0.2032,-0.2036,-0.2081,-0.2117,-0.2116,-0.2001,-0.2012,-0.1697,-0.1538,-0.1304,-0.2094,-0.2095,-0.2095,0,-0.1325,-0.1355,-0.1429,-0.146,-0.1484,-0.1588,-0.1633,-0.1712,-0.177,-0.1811,-0.19,-0.1939,-0.2031,-0.2041,-0.2083,-0.2128,-0.2138,-0.2158,-0.2171,-0.217,-0.2044,-0.1953,-0.1661,-0.1564,-0.2101,-0.21,-0.21,0,-0.1382,-0.1491,-0.1486,-0.1518,-0.1618,-0.1649,-0.1702,-0.1778,-0.1797,-0.189,-0.1916,-0.2014,-0.2054,-0.2093,-0.2152,-0.217,-0.2145,-0.2196,-0.2198,-0.2171,-0.2131,-0.198,-0.1961,-0.2171,-0.2171,-0.2171,-0.2104,0,-0.1521,-0.1546,-0.154,-0.1603,-0.1648,-0.1671,-0.177,-0.181,-0.1869,-0.194,-0.1993,-0.2068,-0.2134,-0.2155,-0.2202,-0.2217,-0.2212,-0.2245,-0.2278,-0.2239,-0.2212,-0.2208,-0.2271,-0.2273,-0.2274,-0.2274,0,0,-0.1565,-0.1586,-0.1647,-0.1666,-0.1707,-0.1799,-0.1818,-0.1879,-0.1983,-0.2009,-0.2026,-0.2145,-0.2199,-0.2249,-0.2242,-0.2266,-0.2261,-0.2284,-0.2254,-0.2251,-0.2249,-0.2221,-0.2217,-0.2276,-0.2277,-0.2277,-0.2277,0,-0.1613,-0.1645,-0.164,-0.1694,-0.1765,-0.1832,-0.1837,-0.1939,-0.1977,-0.2034,-0.2097,-0.2134,-0.2216,-0.2264,-0.2298,-0.2278,-0.2314,-0.2285,-0.2252,-0.2262,-0.2258,-0.2255,-0.2226,-0.2221,-0.228,-0.228,-0.228,0,-0.1672,-0.1718,-0.1728,-0.1798,-0.1851,-0.1892,-0.1957,-0.1993,-0.2034,-0.2114,-0.2164,-0.2211,-0.2276,-0.2307,-0.2322,-0.2337,-0.235,-0.2365,-0.236,-0.2368,-0.2381,-0.2376,-0.2371,-0.2434,-0.2434,-0.2435,0,0,-0.1704,-0.1715,-0.1812,-0.1817,-0.184,-0.194,-0.1975,-0.2024,-0.2087,-0.2108,-0.2175,-0.2228,-0.2275,-0.2297,-0.2345,-0.2376,-0.2389,-0.2382,-0.2375,-0.2369,-0.2374,-0.2385,-0.2379,-0.2436,-0.2436,-0.2436,0,0,-0.1726,-0.1815,-0.1849,-0.1858,-0.1924,-0.2034,-0.2038,-0.2097,-0.2144,-0.2139,-0.2224,-0.2239,-0.2267,-0.2306,-0.2313,-0.2358,-0.2388,-0.2389,-0.2337,-0.2329,-0.2321,-0.2317,-0.2377,0,0,0,0,0,-0.1823,-0.1805,-0.1836,-0.1851,-0.1956,-0.2023,-0.2042,-0.2107,-0.2132,-0.2131,-0.2183,-0.2229,-0.2316,-0.2325,-0.2343,-0.2345,-0.2453,-0.245,-0.2447,-0.2388,-0.2378,-0.237,0,0,0,0,0,0,-0.183,-0.1845,-0.1838,-0.1943,-0.1968,-0.2024,-0.2074,-0.2093,-0.2132,-0.2136,-0.222,-0.2232,-0.2284,-0.232,-0.2336,-0.2336,-0.2372,-0.2452,-0.2449,-0.2447,-0.2384,-0.2377,-0.237,0,0,0,0,0,-0.1835,-0.1848,-0.1987,-0.1945,-0.1967,-0.206,-0.2073,-0.2089,-0.2117,-0.2207,-0.222,-0.2159,-0.2284,-0.23,-0.233,-0.2327,-0.2362,-0.2368,-0.245,-0.2448,-0.2446,-0.2381,0,0,0,0,0,0,-0.184,-0.1874,-0.1994,-0.2006,-0.1932,-0.2057,-0.2073,-0.2085,-0.2185,-0.22,-0.2149,-0.2151,-0.2284,-0.2296,-0.2308,-0.232,-0.2354,-0.2359,-0.2363,-0.2448,-0.2447,-0.2445,0,0,0,0,0,0,-0.1869,-0.1883,-0.2,-0.1979,-0.1989,-0.2054,-0.2069,-0.2128,-0.2184,-0.2122,-0.2128,-0.2149,-0.2254,-0.2294,-0.2303,-0.2396,-0.2347,-0.2353,-0.2356,-0.2359,-0.2447,-0.2446,0,0,0,0,0,0,-0.1877,-0.1889,-0.1976,-0.1984,-0.1992,-0.2127,-0.2109,-0.2205,-0.2189,-0.2116,-0.2187,-0.2186,-0.2251,-0.2262,-0.23,-0.2389,-0.2395,-0.2347,-0.2351,-0.2354,-0.2355,0,0,0,0,0,0,0,-0.1884,-0.177,-0.1925,-0.1988,-0.1995,-0.2113,-0.2116,-0.2119,-0.2189,-0.2188,-0.2188,-0.2187,-0.2316,-0.2322,-0.2328,-0.2383,0,0,-0.2347,-0.2349,0,0,0,0,0,0,0,0,-0.1768,-0.177,-0.1926,-0.1928,-0.1931,-0.2113,-0.2116,-0.2118,-0.2189,-0.2188,-0.2188,-0.2187,-0.2318,-0.2323,-0.2328,0,0,0,0,0,0,0,0,0,0,0,0,0,0,0,-0.1926,-0.1928,0,-0.2114,-0.2116,-0.2118,-0.2189,-0.2188,-0.2188,-0.2187,-0.2319,-0.2323,-0.2327,0,0,0,0,0,0,0,0,0,0,0,0,0,0,0,0,0,0,0,0,0,0,0,0,0,0,0,0,0,0,0,0,0,0,0,0,0,0,0,0,0,0,0,0,0,0,0,0,0,0,0,0,0,0,0,0,0,0,0,0,0,0,0,0,0,0,0,0,0]}],[{"header":{"parameterUnit":"kt","parameterCategory":2,"dx":1,"dy":1,"la1":30.253999710083008,"la2":30.299108505249023,"lo1":-89.0895004272461,"lo2":-89.04439544677734,"nx":28,"ny":28,"refTime":"2022-09-19T21:00:00:Z","depth":"0","parameterNumber":3,"parameterNumberName":"V-component_of_CURRENTS"},"data":[-0.0591,-0.0589,-0.0601,-0.0554,-0.0548,-0.0518,-0.0505,-0.0427,-0.0311,0.0016,0.0313,0.0504,0.0457,-0.0721,-0.1527,-0.186,-0.2266,-0.2387,-0.2614,-0.2235,-0.2229,-0.2223,-0.2192,-0.2288,-0.2289,-0.3031,-0.3037,-0.3042,-0.0616,-0.0633,-0.0633,-0.0656,-0.0636,-0.0671,-0.0674,-0.0642,-0.0568,-0.043,-0.037,-0.0227,-0.0661,-0.1062,-0.1567,-0.1897,-0.2216,-0.2065,-0.2209,-0.2361,-0.1934,-0.1888,-0.192,-0.192,-0.192,-0.192,-0.192,-0.192,-0.0674,-0.0679,-0.0728,-0.0737,-0.0749,-0.0754,-0.0747,-0.0758,-0.0742,-0.0682,-0.0757,-0.0676,-0.0969,-0.1326,-0.1593,-0.191,-0.206,-0.1927,-0.2033,-0.2144,-0.2277,-0.1812,-0.1867,-0.1868,-0.1868,-0.1868,-0.1868,0,-0.0741,-0.0774,-0.0808,-0.0828,-0.0848,-0.0872,-0.0901,-0.0901,-0.0977,-0.0971,-0.0983,-0.1021,-0.1264,-0.1418,-0.1633,-0.1755,-0.1988,-0.1858,-0.1913,-0.1998,-0.2104,-0.2262,-0.1812,-0.1894,-0.1894,-0.1894,-0.1895,-0.1895,-0.0819,-0.0836,-0.0911,-0.092,-0.0952,-0.0981,-0.1,-0.1085,-0.1097,-0.1164,-0.1156,-0.1261,-0.1299,-0.1491,-0.1676,-0.184,-0.1924,-0.1863,-0.1882,-0.1914,-0.2006,-0.2111,-0.2248,-0.19,-0.1899,-0.1899,-0.1898,0,-0.0859,-0.0926,-0.0956,-0.1039,-0.1056,-0.1064,-0.1119,-0.1138,-0.1206,-0.1212,-0.1231,-0.134,-0.144,-0.1538,-0.1673,-0.1738,-0.1919,-0.185,-0.1801,-0.1798,-0.1895,-0.1974,-0.2219,-0.239,-0.196,-0.196,-0.196,0,-0.0944,-0.0959,-0.1049,-0.1063,-0.1085,-0.1146,-0.1167,-0.1215,-0.1271,-0.1277,-0.137,-0.1389,-0.1516,-0.157,-0.1655,-0.1746,-0.1767,-0.1819,-0.1824,-0.1792,-0.1784,-0.184,-0.1916,-0.1869,-0.1868,-0.1867,-0.1867,0,-0.0973,-0.1041,-0.1071,-0.1091,-0.1163,-0.1182,-0.1213,-0.127,-0.1291,-0.1361,-0.1373,-0.1469,-0.1498,-0.1589,-0.1649,-0.1654,-0.1754,-0.1771,-0.1793,-0.1792,-0.1792,-0.1786,-0.1899,-0.1865,-0.1865,-0.1865,-0.1865,0,-0.103,-0.1069,-0.1108,-0.1163,-0.1174,-0.1195,-0.1239,-0.1272,-0.1332,-0.1357,-0.1406,-0.1433,-0.1512,-0.1504,-0.1629,-0.1585,-0.1638,-0.1672,-0.1676,-0.1647,-0.162,-0.1694,-0.1741,-0.1785,-0.1718,-0.1716,-0.1715,0,-0.1047,-0.1093,-0.1125,-0.1156,-0.1177,-0.1213,-0.1246,-0.1282,-0.1309,-0.1346,-0.1389,-0.1426,-0.1447,-0.1462,-0.1506,-0.1554,-0.1604,-0.1544,-0.1635,-0.1638,-0.1606,-0.1647,-0.1618,-0.1718,-0.1696,-0.1698,-0.17,0,-0.1047,-0.1116,-0.1116,-0.1134,-0.1175,-0.1188,-0.1228,-0.1266,-0.1286,-0.1326,-0.1355,-0.1415,-0.1432,-0.1452,-0.1471,-0.1507,-0.1574,-0.1503,-0.1505,-0.1558,-0.1667,-0.1626,-0.1635,-0.1561,-0.1563,-0.1565,-0.1685,0,-0.1096,-0.111,-0.1121,-0.1149,-0.1166,-0.1185,-0.1216,-0.124,-0.1253,-0.1277,-0.1323,-0.1359,-0.14,-0.1409,-0.1419,-0.1475,-0.1478,-0.1464,-0.1467,-0.1487,-0.1535,-0.1546,-0.1405,-0.1405,-0.1405,-0.1405,0,0,-0.1083,-0.1097,-0.111,-0.1131,-0.1148,-0.1163,-0.1181,-0.1204,-0.1242,-0.1261,-0.1257,-0.1325,-0.1352,-0.1401,-0.1412,-0.1414,-0.1436,-0.1421,-0.1466,-0.1472,-0.1479,-0.1526,-0.1537,-0.1405,-0.1405,-0.1405,-0.1405,0,-0.1094,-0.1095,-0.1103,-0.1122,-0.1149,-0.1166,-0.1167,-0.1201,-0.1217,-0.1245,-0.1267,-0.1299,-0.1335,-0.1372,-0.1388,-0.1407,-0.1435,-0.1406,-0.1425,-0.1463,-0.147,-0.1476,-0.1523,-0.1534,-0.1404,-0.1404,-0.1405,0,-0.1094,-0.1107,-0.1106,-0.1126,-0.1145,-0.1167,-0.1171,-0.119,-0.1209,-0.1226,-0.1266,-0.1286,-0.1314,-0.1351,-0.1366,-0.1363,-0.1432,-0.1398,-0.1398,-0.1414,-0.1455,-0.1462,-0.1468,-0.1391,-0.1391,-0.1391,0,0,-0.1102,-0.1105,-0.1127,-0.1129,-0.1141,-0.1163,-0.1175,-0.1187,-0.1212,-0.1221,-0.1252,-0.1279,-0.1307,-0.1323,-0.1354,-0.138,-0.1408,-0.1396,-0.1397,-0.1398,-0.1414,-0.1454,-0.1461,-0.1391,-0.1391,-0.1391,0,0,-0.1109,-0.1128,-0.1128,-0.1132,-0.1152,-0.1185,-0.1197,-0.1201,-0.1224,-0.1226,-0.1256,-0.1265,-0.1299,-0.1311,-0.1307,-0.136,-0.1356,-0.1358,-0.1359,-0.136,-0.136,-0.1375,-0.1332,0,0,0,0,0,-0.1124,-0.1124,-0.1123,-0.1127,-0.1153,-0.118,-0.1185,-0.1208,-0.1205,-0.1212,-0.1235,-0.1253,-0.1317,-0.1314,-0.1323,-0.1343,-0.139,-0.1391,-0.1391,-0.1398,-0.1399,-0.14,0,0,0,0,0,0,-0.1126,-0.1128,-0.1124,-0.1153,-0.116,-0.1179,-0.1189,-0.1196,-0.1206,-0.1208,-0.1247,-0.1254,-0.1281,-0.1312,-0.1319,-0.1338,-0.1329,-0.1391,-0.1391,-0.1391,-0.1399,-0.1399,-0.14,0,0,0,0,0,-0.1127,-0.1129,-0.116,-0.1154,-0.116,-0.1191,-0.1189,-0.1195,-0.1201,-0.1244,-0.1251,-0.1216,-0.1281,-0.1289,-0.1316,-0.1334,-0.1324,-0.1327,-0.1391,-0.1391,-0.1391,-0.1399,0,0,0,0,0,0,-0.1128,-0.1138,-0.1162,-0.1166,-0.1153,-0.1191,-0.1195,-0.1194,-0.1237,-0.1244,-0.1216,-0.1217,-0.128,-0.1287,-0.1293,-0.1332,-0.132,-0.1323,-0.1325,-0.1391,-0.1391,-0.1391,0,0,0,0,0,0,-0.1137,-0.114,-0.1164,-0.1161,-0.1165,-0.119,-0.1194,-0.1222,-0.1238,-0.1207,-0.1209,-0.1216,-0.1275,-0.1285,-0.129,-0.1333,-0.1317,-0.132,-0.1322,-0.1323,-0.1391,-0.1391,0,0,0,0,0,0,-0.1139,-0.1142,-0.116,-0.1163,-0.1166,-0.1207,-0.1216,-0.1243,-0.1228,-0.1205,-0.1229,-0.1229,-0.1273,-0.1279,-0.1288,-0.1328,-0.1332,-0.1317,-0.1319,-0.132,-0.1321,0,0,0,0,0,0,0,-0.1141,-0.1111,-0.1142,-0.1165,-0.1167,-0.1199,-0.12,-0.1201,-0.1228,-0.1229,-0.1229,-0.1229,-0.1302,-0.1305,-0.1308,-0.1325,0,0,-0.1317,-0.1318,0,0,0,0,0,0,0,0,-0.1111,-0.1111,-0.1142,-0.1143,-0.1144,-0.1199,-0.12,-0.1201,-0.1228,-0.1229,-0.1229,-0.1229,-0.1303,-0.1305,-0.1308,0,0,0,0,0,0,0,0,0,0,0,0,0,0,0,-0.1142,-0.1143,0,-0.1199,-0.12,-0.12,-0.1228,-0.1229,-0.1229,-0.1229,-0.1304,-0.1306,-0.1308,0,0,0,0,0,0,0,0,0,0,0,0,0,0,0,0,0,0,0,0,0,0,0,0,0,0,0,0,0,0,0,0,0,0,0,0,0,0,0,0,0,0,0,0,0,0,0,0,0,0,0,0,0,0,0,0,0,0,0,0,0,0,0,0,0,0,0,0,0]}]],[[{"header":{"parameterUnit":"kt","parameterCategory":2,"dx":1,"dy":1,"la1":30.253999710083008,"la2":30.299108505249023,"lo1":-89.0895004272461,"lo2":-89.04439544677734,"nx":28,"ny":28,"refTime":"2022-09-19T21:00:00:Z","depth":"2","parameterNumber":2,"parameterNumberName":"U-component_of_CURRENTS"},"data":[-0.1086,-0.0998,-0.0925,-0.0805,-0.0677,-0.0553,-0.0505,-0.0524,-0.0469,-0.0395,-0.0254,-0.0323,-0.0134,0.003,0.0108,0.0301,0.0418,0.0286,0.0448,0.047,0.0495,0.0619,0.0423,0,0,0,0,0,-0.1085,-0.0971,-0.0861,-0.071,-0.0652,-0.0522,-0.0463,-0.0456,-0.0467,-0.0373,-0.0367,-0.0268,-0.02,0.0075,0.0409,0.0494,0.0516,0.0507,0.0521,0.0545,0.0568,0.0432,0.0319,0.032,0.0321,0.0322,0,0,-0.1044,-0.0983,-0.0835,-0.07,-0.0589,-0.052,-0.0457,-0.0409,-0.0375,-0.0296,-0.029,-0.0196,-0.0083,0.0265,0.0422,0.0683,0.071,0.0729,0.0741,0.0756,0.0626,0.053,0.0564,0.0566,0.0567,0.0569,0.057,0,-0.101,-0.0933,-0.0825,-0.0678,-0.0568,-0.046,-0.0347,-0.0333,-0.0176,-0.013,-0.0088,-0.0053,0.0197,0.0346,0.062,0.0704,0.0944,0.0907,0.1164,0.0775,0.0684,0.0643,0.0635,0.0769,0.0772,0.0774,0.0776,0.0777,-0.0971,-0.0909,-0.0707,-0.0634,-0.0543,-0.0409,-0.0316,-0.0155,-0.0093,0.0076,0.0099,0.0287,0.0328,0.0611,0.0813,0.1025,0.1073,0.0981,0.0888,0.1022,0.0983,0.0961,0.094,0.0811,0.0807,0.0804,0.0801,0,-0.0955,-0.0837,-0.0707,-0.0518,-0.0459,-0.0374,-0.0198,-0.0107,0.0031,0.0144,0.0194,0.0384,0.0542,0.0742,0.0955,0.1011,0.1139,0.114,0.0943,0.0899,0.0967,0.0942,0.1173,0.117,0.1168,0.1166,0.1165,0,-0.0895,-0.0804,-0.0634,-0.0572,-0.0444,-0.031,-0.017,-0.0049,0.0107,0.0193,0.0362,0.0424,0.0643,0.0776,0.0874,0.0973,0.1076,0.0973,0.0956,0.081,0.0781,0.0945,0.092,0.1143,0.1141,0.1139,0.1138,0,-0.092,-0.0731,-0.0617,-0.0557,-0.037,-0.0284,-0.0186,-0.001,0.0072,0.0263,0.0313,0.0527,0.0581,0.0733,0.08,0.0765,0.0997,0.0949,0.0899,0.0889,0.0805,0.0777,0.1136,0.1136,0.1135,0.1135,0.1134,0,-0.0875,-0.0782,-0.063,-0.0475,-0.043,-0.0334,-0.0162,-0.0053,0.0123,0.0183,0.0321,0.037,0.0533,0.0463,0.0687,0.0601,0.0658,0.0685,0.0693,0.0578,0.0466,0.0488,0.061,0.0721,0.0717,0.0713,0.071,0,-0.0946,-0.0793,-0.0713,-0.0561,-0.0479,-0.0389,-0.0273,-0.0153,-0.0067,0.005,0.0135,0.0235,0.0228,0.0258,0.0355,0.0405,0.0511,0.0379,0.0547,0.0553,0.0411,0.0548,0.0395,0.0563,0.0666,0.067,0.0674,0,-0.1016,-0.0848,-0.0828,-0.0757,-0.0617,-0.056,-0.0419,-0.029,-0.0204,-0.0117,0.0004,0.0126,0.0136,0.0196,0.0208,0.0286,0.0432,0.0254,0.0257,0.0328,0.0642,0.0502,0.0518,0.0413,0.0419,0.0423,0.0638,0,-0.1011,-0.0931,-0.0884,-0.0758,-0.069,-0.0612,-0.0525,-0.0454,-0.0409,-0.0348,-0.0209,-0.0157,-0.004,-0.0026,-0.0015,0.0145,0.0135,0.0097,0.0077,0.0173,0.0249,0.0277,-0.0068,-0.0069,-0.007,-0.0071,0,0,-0.111,-0.1017,-0.0976,-0.0891,-0.0826,-0.0785,-0.0697,-0.0636,-0.0534,-0.0476,-0.0501,-0.0311,-0.0268,-0.011,-0.008,-0.0073,-0.0025,-0.005,0.0109,0.0128,0.0147,0.0225,0.0253,-0.0072,-0.0072,-0.0073,-0.0073,0,-0.1114,-0.1073,-0.1006,-0.0946,-0.085,-0.0806,-0.0782,-0.07,-0.0655,-0.055,-0.0521,-0.0443,-0.0326,-0.0255,-0.0205,-0.0099,-0.0068,-0.0087,0.0005,0.0097,0.0117,0.0136,0.0217,0.0242,-0.0075,-0.0075,-0.0075,0,-0.1159,-0.1103,-0.1069,-0.098,-0.092,-0.084,-0.0851,-0.0777,-0.0701,-0.0691,-0.0571,-0.0535,-0.0457,-0.035,-0.0298,-0.0312,-0.0104,-0.0188,-0.0183,-0.0138,-0.0043,-0.0019,0.0001,-0.0262,-0.0263,-0.0263,0,0,-0.1163,-0.1108,-0.1033,-0.0976,-0.0941,-0.0875,-0.0834,-0.0801,-0.0734,-0.0704,-0.0644,-0.0569,-0.0489,-0.0436,-0.0368,-0.0267,-0.0219,-0.0212,-0.0203,-0.0196,-0.0148,-0.0051,-0.0029,-0.0266,-0.0266,-0.0266,0,0,-0.1168,-0.108,-0.1054,-0.0993,-0.0927,-0.0857,-0.0813,-0.079,-0.072,-0.0706,-0.0657,-0.0636,-0.0529,-0.0497,-0.0538,-0.0365,-0.0401,-0.039,-0.0382,-0.037,-0.0361,-0.0322,-0.0534,0,0,0,0,0,-0.1125,-0.1091,-0.1068,-0.1048,-0.0942,-0.0867,-0.0852,-0.0803,-0.0797,-0.0768,-0.0707,-0.0693,-0.0506,-0.0543,-0.0521,-0.0457,-0.03,-0.0294,-0.0288,-0.0253,-0.0242,-0.0232,0,0,0,0,0,0,-0.1117,-0.1095,-0.1068,-0.0999,-0.0973,-0.0869,-0.0868,-0.0855,-0.0799,-0.0795,-0.0706,-0.0691,-0.0658,-0.0551,-0.0532,-0.0471,-0.0541,-0.0298,-0.0293,-0.0288,-0.0249,-0.024,-0.0232,0,0,0,0,0,-0.1111,-0.1093,-0.0937,-0.0999,-0.0977,-0.09,-0.087,-0.0858,-0.0815,-0.074,-0.0725,-0.0776,-0.0659,-0.0638,-0.0539,-0.048,-0.0553,-0.0547,-0.0294,-0.029,-0.0287,-0.0245,0,0,0,0,0,0,-0.1105,-0.1088,-0.0931,-0.0922,-0.1006,-0.0904,-0.0889,-0.0861,-0.0762,-0.0746,-0.081,-0.0809,-0.0659,-0.0643,-0.0628,-0.0485,-0.0564,-0.0557,-0.0553,-0.0291,-0.0288,-0.0285,0,0,0,0,0,0,-0.1097,-0.1081,-0.0926,-0.0938,-0.093,-0.0909,-0.0894,-0.0821,-0.0761,-0.0838,-0.0834,-0.081,-0.067,-0.0647,-0.0634,-0.0523,-0.0572,-0.0565,-0.0561,-0.0558,-0.0289,-0.0286,0,0,0,0,0,0,-0.1089,-0.1076,-0.0941,-0.0935,-0.0928,-0.0825,-0.0842,-0.0731,-0.0785,-0.0843,-0.0786,-0.0787,-0.0673,-0.066,-0.0639,-0.0533,-0.0525,-0.0572,-0.0567,-0.0564,-0.0562,0,0,0,0,0,0,0,-0.1083,-0.1187,-0.098,-0.0932,-0.0926,-0.0835,-0.0833,-0.0831,-0.0786,-0.0786,-0.0786,-0.0787,-0.061,-0.0603,-0.0595,-0.0541,0,0,-0.0572,-0.0569,0,0,0,0,0,0,0,0,-0.1191,-0.1188,-0.0979,-0.0977,-0.0975,-0.0835,-0.0833,-0.0832,-0.0786,-0.0786,-0.0786,-0.0787,-0.0608,-0.0602,-0.0596,0,0,0,0,0,0,0,0,0,0,0,0,0,0,0,-0.0979,-0.0977,0,-0.0835,-0.0833,-0.0832,-0.0786,-0.0786,-0.0786,-0.0786,-0.0606,-0.0602,-0.0597,0,0,0,0,0,0,0,0,0,0,0,0,0,0,0,0,0,0,0,0,0,0,0,0,0,0,0,0,0,0,0,0,0,0,0,0,0,0,0,0,0,0,0,0,0,0,0,0,0,0,0,0,0,0,0,0,0,0,0,0,0,0,0,0,0,0,0,0,0]}],[{"header":{"parameterUnit":"kt","parameterCategory":2,"dx":1,"dy":1,"la1":30.253999710083008,"la2":30.299108505249023,"lo1":-89.0895004272461,"lo2":-89.04439544677734,"nx":28,"ny":28,"refTime":"2022-09-19T21:00:00:Z","depth":"2","parameterNumber":3,"parameterNumberName":"V-component_of_CURRENTS"},"data":[0.0314,0.0282,0.0276,0.0284,0.0324,0.04,0.046,0.0514,0.0541,0.0453,0.0308,0.0124,0.0041,-0.0164,-0.0178,-0.0164,-0.0039,-0.0187,0.0098,0.0138,0.0168,0.0174,0.0058,0,0,0,0,0,0.0331,0.0322,0.0327,0.0378,0.0408,0.047,0.0586,0.063,0.071,0.0722,0.0721,0.0319,0.0162,0.0145,0.0029,-0.0029,-0.0024,-0.0018,-0.0013,0.0017,0.0045,-0.0046,-0.0258,-0.0257,-0.0257,-0.0257,0,0,0.0382,0.0373,0.0402,0.0431,0.0483,0.0556,0.0607,0.0709,0.0803,0.0866,0.0924,0.0821,0.0708,0.0403,0.0378,0.0361,0.0402,0.0301,0.0314,0.0331,0.0251,0.0195,0.0119,0.0121,0.0123,0.0124,0.0126,0,0.0444,0.0454,0.0483,0.0516,0.0552,0.0628,0.0703,0.0755,0.0887,0.0951,0.1057,0.1063,0.1028,0.0875,0.0736,0.0638,0.0661,0.0567,0.0875,0.0422,0.037,0.0367,0.0376,0.034,0.0344,0.0346,0.0348,0.035,0.0513,0.0518,0.0587,0.0605,0.0618,0.0675,0.0724,0.0839,0.09,0.1038,0.1072,0.1147,0.1135,0.1126,0.0991,0.0879,0.0941,0.0655,0.0537,0.0754,0.075,0.0747,0.0743,0.0388,0.0383,0.0379,0.0376,0,0.0547,0.0586,0.0618,0.0693,0.0717,0.0744,0.0835,0.0893,0.0964,0.102,0.103,0.1136,0.116,0.1132,0.1125,0.101,0.0959,0.0901,0.0727,0.0701,0.0761,0.0754,0.0795,0.0792,0.0789,0.0787,0.0786,0,0.06,0.0626,0.0677,0.0683,0.0744,0.0793,0.0856,0.0903,0.0979,0.1021,0.1035,0.1076,0.1057,0.1069,0.0996,0.0922,0.1004,0.0794,0.0794,0.0652,0.063,0.0879,0.0875,0.0907,0.0907,0.0906,0.0906,0,0.0593,0.0656,0.0688,0.07,0.0763,0.079,0.0828,0.0882,0.0925,0.0973,0.0998,0.102,0.1023,0.0994,0.0923,0.0891,0.0941,0.0911,0.0788,0.0782,0.0679,0.066,0.0905,0.0905,0.0905,0.0904,0.0904,0,0.0598,0.0625,0.0661,0.0731,0.0743,0.076,0.0829,0.0863,0.0905,0.0914,0.0919,0.0902,0.0905,0.0821,0.0836,0.0814,0.0774,0.0759,0.0763,0.0701,0.0684,0.0591,0.0553,0.0792,0.0791,0.079,0.0789,0,0.0585,0.0617,0.0621,0.0666,0.0681,0.0688,0.0726,0.0748,0.0754,0.0793,0.0766,0.0786,0.0705,0.0707,0.0701,0.0708,0.0707,0.0664,0.0765,0.0768,0.0678,0.0667,0.0502,0.0546,0.0775,0.0777,0.0778,0,0.0554,0.0565,0.0567,0.0589,0.0591,0.0606,0.0631,0.066,0.0701,0.0666,0.0724,0.0687,0.0667,0.0689,0.0674,0.0683,0.0685,0.0668,0.0671,0.0696,0.0761,0.0662,0.0661,0.0689,0.069,0.0692,0.0767,0,0.0532,0.0541,0.0545,0.0555,0.0566,0.0575,0.0576,0.0581,0.0576,0.0587,0.0604,0.059,0.0631,0.0613,0.0605,0.0637,0.0647,0.065,0.0686,0.0682,0.0714,0.0722,0.0641,0.0641,0.0642,0.0643,0,0,0.0506,0.0514,0.0496,0.0507,0.0523,0.0505,0.053,0.0533,0.0547,0.0568,0.0541,0.0584,0.0586,0.064,0.0619,0.0621,0.0647,0.0656,0.0677,0.068,0.0683,0.0714,0.0721,0.0644,0.0644,0.0645,0.0645,0,0.0492,0.048,0.0489,0.0492,0.0497,0.0507,0.0503,0.0514,0.0527,0.0536,0.0553,0.0553,0.0588,0.0617,0.0638,0.0628,0.0671,0.0631,0.0647,0.0681,0.0683,0.0686,0.0716,0.0721,0.0647,0.0647,0.0647,0,0.0472,0.0473,0.0476,0.0478,0.0491,0.0506,0.0509,0.0519,0.054,0.0557,0.0585,0.0582,0.0622,0.0638,0.0648,0.0669,0.0706,0.0685,0.0682,0.0705,0.0744,0.0746,0.0747,0.0726,0.0726,0.0726,0,0,0.0464,0.0464,0.047,0.0478,0.0478,0.05,0.0511,0.0524,0.0544,0.0555,0.0577,0.0606,0.0625,0.0646,0.0662,0.0682,0.0716,0.0693,0.0689,0.0686,0.0706,0.0744,0.0745,0.0726,0.0726,0.0726,0,0,0.0469,0.0473,0.0477,0.0482,0.0492,0.052,0.0532,0.0543,0.0565,0.057,0.0606,0.0614,0.0621,0.0653,0.065,0.0685,0.0703,0.0704,0.0664,0.066,0.0657,0.0676,0.069,0,0,0,0,0,0.0466,0.0467,0.047,0.0473,0.05,0.0512,0.0518,0.055,0.0562,0.0566,0.0588,0.0616,0.0663,0.0661,0.0667,0.0672,0.0728,0.0727,0.0727,0.0679,0.0674,0.067,0,0,0,0,0,0,0.0467,0.0469,0.047,0.0495,0.0502,0.0512,0.054,0.0549,0.0562,0.0567,0.061,0.0617,0.0646,0.066,0.0665,0.0669,0.0689,0.0728,0.0727,0.0727,0.0677,0.0673,0.067,0,0,0,0,0,0.0468,0.047,0.0502,0.0496,0.0502,0.0541,0.0541,0.0548,0.0562,0.0602,0.0611,0.0584,0.0645,0.0652,0.0663,0.0666,0.0685,0.0687,0.0727,0.0727,0.0727,0.0675,0,0,0,0,0,0,0.0469,0.0485,0.0504,0.0508,0.05,0.0542,0.0548,0.0548,0.0598,0.0606,0.0579,0.0582,0.0644,0.065,0.0655,0.0663,0.0682,0.0684,0.0685,0.0727,0.0727,0.0727,0,0,0,0,0,0,0.0484,0.0487,0.0506,0.0509,0.0513,0.0542,0.0547,0.0565,0.0598,0.0573,0.0576,0.0579,0.0635,0.0648,0.0653,0.068,0.068,0.0682,0.0683,0.0684,0.0727,0.0727,0,0,0,0,0,0,0.0486,0.0489,0.0508,0.0511,0.0515,0.0561,0.0559,0.0586,0.0598,0.057,0.06,0.0601,0.0632,0.0638,0.0651,0.0676,0.0679,0.068,0.0681,0.0682,0.0683,0,0,0,0,0,0,0,0.0488,0.0455,0.0479,0.0514,0.0517,0.0541,0.0542,0.0544,0.0599,0.0599,0.06,0.0601,0.0669,0.0671,0.0673,0.0673,0,0,0.068,0.0681,0,0,0,0,0,0,0,0,0.0455,0.0455,0.0479,0.048,0.048,0.0541,0.0542,0.0543,0.0599,0.0599,0.06,0.06,0.067,0.0671,0.0673,0,0,0,0,0,0,0,0,0,0,0,0,0,0,0,0.0479,0.048,0,0.0541,0.0542,0.0543,0.0599,0.0599,0.06,0.06,0.067,0.0671,0.0673,0,0,0,0,0,0,0,0,0,0,0,0,0,0,0,0,0,0,0,0,0,0,0,0,0,0,0,0,0,0,0,0,0,0,0,0,0,0,0,0,0,0,0,0,0,0,0,0,0,0,0,0,0,0,0,0,0,0,0,0,0,0,0,0,0,0,0,0,0]}]],[[{"header":{"parameterUnit":"kt","parameterCategory":2,"dx":1,"dy":1,"la1":30.253999710083008,"la2":30.299108505249023,"lo1":-89.0895004272461,"lo2":-89.04439544677734,"nx":28,"ny":28,"refTime":"2022-09-19T21:00:00:Z","depth":"4","parameterNumber":2,"parameterNumberName":"U-component_of_CURRENTS"},"data":[-0.0621,-0.0632,-0.0623,-0.0553,-0.0509,-0.0476,-0.0473,-0.0485,-0.0465,-0.0486,-0.0449,-0.0438,-0.0365,-0.0441,-0.0275,-0.0259,-0.0313,-0.0181,-0.0177,-0.0323,-0.0339,-0.0354,-0.0321,0,0,0,0,0,-0.0633,-0.063,-0.063,-0.0605,-0.059,-0.0572,-0.0582,-0.0592,-0.0602,-0.0555,-0.0561,-0.0506,-0.0402,-0.038,-0.0295,-0.0315,-0.0329,-0.0207,-0.0331,-0.0333,-0.0351,-0.0313,0,0,0,0,0,0,-0.0649,-0.065,-0.0668,-0.0661,-0.0652,-0.0615,-0.0622,-0.0598,-0.0591,-0.0591,-0.0575,-0.0537,-0.0534,-0.0426,-0.0391,-0.033,-0.0338,-0.0332,-0.0349,-0.0366,-0.0332,-0.0288,-0.0151,0,0,0,0,0,-0.0657,-0.0679,-0.0684,-0.0686,-0.0685,-0.0669,-0.0663,-0.0653,-0.0658,-0.0678,-0.0631,-0.0576,-0.0515,-0.0475,-0.0417,-0.0415,-0.0484,-0.0435,-0.0446,-0.0494,-0.047,-0.0478,-0.049,-0.042,-0.0422,-0.0424,-0.0424,0,-0.0677,-0.0683,-0.07,-0.07,-0.0703,-0.0704,-0.0701,-0.0711,-0.0706,-0.0701,-0.0688,-0.0652,-0.0639,-0.0537,-0.0542,-0.0505,-0.0511,-0.0481,-0.0532,-0.05,-0.0501,-0.0509,-0.0516,-0.0439,-0.0438,-0.0437,-0.0435,0,-0.0689,-0.0699,-0.0703,-0.0713,-0.0713,-0.0716,-0.0721,-0.0718,-0.073,-0.0721,-0.0718,-0.0714,-0.068,-0.0675,-0.0687,-0.0649,-0.0625,-0.0596,-0.0736,-0.074,-0.0542,-0.0543,-0.0463,-0.0458,-0.0453,-0.0449,-0.0446,0,-0.07,-0.0703,-0.0713,-0.0715,-0.0716,-0.0727,-0.0732,-0.074,-0.0745,-0.0737,-0.0748,-0.0735,-0.0754,-0.074,-0.0759,-0.0694,-0.0763,-0.0674,-0.0665,-0.0826,-0.0827,-0.0827,-0.0828,-0.0824,-0.0825,-0.0825,-0.0825,0,-0.0708,-0.0713,-0.0718,-0.0721,-0.0731,-0.0736,-0.0743,-0.0755,-0.0756,-0.0759,-0.0755,-0.0757,-0.0753,-0.0772,-0.0773,-0.0796,-0.0777,-0.0813,-0.0699,-0.069,-0.0828,-0.0829,-0.0825,-0.0825,-0.0825,-0.0825,-0.0825,0,-0.0715,-0.0716,-0.0722,-0.0726,-0.0728,-0.0738,-0.0751,-0.076,-0.0764,-0.0767,-0.0766,-0.0768,-0.0769,-0.0785,-0.0795,-0.08,-0.0816,-0.0825,-0.0824,-0.0692,-0.0692,-0.0801,-0.0818,-0.0818,-0.0819,-0.0819,-0.0819,0,-0.0715,-0.0719,-0.0725,-0.0735,-0.0735,-0.0746,-0.0757,-0.0764,-0.0771,-0.0771,-0.0773,-0.0779,-0.079,-0.0795,-0.0805,-0.0818,-0.0823,-0.0828,-0.0835,-0.0834,-0.0691,-0.0674,-0.0845,-0.082,-0.082,-0.082,-0.082,0,-0.0714,-0.0719,-0.0723,-0.0722,-0.0738,-0.0739,-0.0756,-0.0758,-0.076,-0.0769,-0.0764,-0.0792,-0.0788,-0.0799,-0.0811,-0.0819,-0.0823,-0.0833,-0.0834,-0.0803,-0.0833,-0.0693,-0.0679,-0.0845,-0.0845,-0.0845,-0.0821,0,-0.0708,-0.0714,-0.0718,-0.0726,-0.0732,-0.0737,-0.0742,-0.075,-0.0757,-0.0753,-0.0766,-0.078,-0.0791,-0.0808,-0.0816,-0.083,-0.0829,-0.0842,-0.0823,-0.0844,-0.0832,-0.0831,-0.0841,-0.0841,-0.0841,-0.0841,0,0,-0.0704,-0.0705,-0.0709,-0.0712,-0.0714,-0.0719,-0.0722,-0.0728,-0.0734,-0.0732,-0.0737,-0.0766,-0.078,-0.0794,-0.0806,-0.0823,-0.0825,-0.0812,-0.0843,-0.0843,-0.0844,-0.0833,-0.0832,-0.0841,-0.0841,-0.0841,-0.0841,0,-0.0696,-0.0702,-0.0707,-0.0708,-0.0711,-0.0711,-0.0714,-0.0712,-0.0713,-0.073,-0.0732,-0.0745,-0.0776,-0.0778,-0.0787,-0.0821,-0.0812,-0.0841,-0.0834,-0.0843,-0.0844,-0.0844,-0.0833,-0.0832,-0.0841,-0.0841,-0.0841,0,-0.0687,-0.0687,-0.069,-0.0691,-0.0692,-0.0696,-0.0685,-0.069,-0.0694,-0.0693,-0.0708,-0.0719,-0.0737,-0.0759,-0.0772,-0.0766,-0.0797,-0.0799,-0.08,-0.0787,-0.0796,-0.0797,-0.0798,-0.0781,-0.0781,-0.0781,0,0,-0.0682,-0.0688,-0.0682,-0.0688,-0.0689,-0.0686,-0.0687,-0.0683,-0.0687,-0.069,-0.0694,-0.071,-0.0727,-0.0735,-0.0751,-0.0775,-0.0769,-0.0789,-0.0792,-0.0794,-0.0783,-0.0792,-0.0794,-0.0779,-0.0779,-0.0779,0,0,-0.0676,-0.0672,-0.0672,-0.0677,-0.0676,-0.0668,-0.0674,-0.0671,-0.0681,-0.0684,-0.0683,-0.0685,-0.0708,-0.0718,-0.0697,-0.0743,-0.0735,-0.074,-0.0725,-0.0728,-0.0731,-0.071,-0.0681,0,0,0,0,0,-0.0667,-0.0673,-0.0674,-0.0674,-0.0672,-0.0671,-0.0671,-0.0664,-0.0663,-0.0667,-0.0675,-0.0668,-0.0709,-0.069,-0.0694,-0.0704,-0.0759,-0.0763,-0.0766,-0.0753,-0.0757,-0.0761,0,0,0,0,0,0,-0.0667,-0.0667,-0.0673,-0.0666,-0.0665,-0.0671,-0.0659,-0.0657,-0.0662,-0.066,-0.0667,-0.0668,-0.0664,-0.0688,-0.0692,-0.0701,-0.068,-0.0761,-0.0764,-0.0766,-0.0755,-0.0758,-0.0761,0,0,0,0,0,-0.0667,-0.0667,-0.0666,-0.0666,-0.0665,-0.0658,-0.0658,-0.0657,-0.0662,-0.0661,-0.0661,-0.0657,-0.0664,-0.0667,-0.069,-0.07,-0.0677,-0.0679,-0.0763,-0.0765,-0.0767,-0.0756,0,0,0,0,0,0,-0.0667,-0.0668,-0.0666,-0.0665,-0.066,-0.0657,-0.0656,-0.0657,-0.0663,-0.0662,-0.065,-0.0648,-0.0665,-0.0667,-0.0669,-0.0699,-0.0676,-0.0677,-0.0678,-0.0764,-0.0766,-0.0768,0,0,0,0,0,0,-0.0668,-0.0668,-0.0666,-0.0659,-0.0658,-0.0657,-0.0656,-0.0672,-0.0663,-0.0652,-0.0651,-0.0649,-0.0665,-0.0667,-0.0669,-0.0693,-0.0674,-0.0675,-0.0676,-0.0677,-0.0766,-0.0767,0,0,0,0,0,0,-0.0668,-0.0668,-0.0659,-0.0658,-0.0657,-0.0654,-0.0671,-0.0673,-0.0648,-0.0652,-0.0647,-0.0646,-0.0665,-0.0667,-0.0668,-0.0692,-0.0693,-0.0674,-0.0675,-0.0676,-0.0676,0,0,0,0,0,0,0,-0.0668,-0.0669,-0.0666,-0.0658,-0.0657,-0.0663,-0.0663,-0.0663,-0.0648,-0.0647,-0.0647,-0.0646,-0.0667,-0.0668,-0.067,-0.0691,0,0,-0.0674,-0.0675,0,0,0,0,0,0,0,0,-0.0669,-0.0669,-0.0666,-0.0666,-0.0666,-0.0663,-0.0663,-0.0663,-0.0648,-0.0647,-0.0647,-0.0646,-0.0667,-0.0668,-0.0669,0,0,0,0,0,0,0,0,0,0,0,0,0,0,0,-0.0666,-0.0666,0,-0.0663,-0.0663,-0.0663,-0.0648,-0.0647,-0.0647,-0.0647,-0.0668,-0.0668,-0.0669,0,0,0,0,0,0,0,0,0,0,0,0,0,0,0,0,0,0,0,0,0,0,0,0,0,0,0,0,0,0,0,0,0,0,0,0,0,0,0,0,0,0,0,0,0,0,0,0,0,0,0,0,0,0,0,0,0,0,0,0,0,0,0,0,0,0,0,0,0]}],[{"header":{"parameterUnit":"kt","parameterCategory":2,"dx":1,"dy":1,"la1":30.253999710083008,"la2":30.299108505249023,"lo1":-89.0895004272461,"lo2":-89.04439544677734,"nx":28,"ny":28,"refTime":"2022-09-19T21:00:00:Z","depth":"4","parameterNumber":3,"parameterNumberName":"V-component_of_CURRENTS"},"data":[-0.0803,-0.0849,-0.0868,-0.0947,-0.1,-0.1083,-0.1117,-0.1129,-0.1089,-0.1089,-0.1032,-0.1027,-0.094,-0.1004,-0.0869,-0.0859,-0.0895,-0.0802,-0.08,-0.0889,-0.0899,-0.0907,-0.088,0,0,0,0,0,-0.0803,-0.0828,-0.0882,-0.0949,-0.1027,-0.1073,-0.1123,-0.1135,-0.1148,-0.111,-0.111,-0.1056,-0.0975,-0.0954,-0.0877,-0.0922,-0.09,-0.0832,-0.0909,-0.0895,-0.0906,-0.0876,0,0,0,0,0,0,-0.0805,-0.0831,-0.0877,-0.0936,-0.1013,-0.1069,-0.1097,-0.1107,-0.1126,-0.1143,-0.1125,-0.1099,-0.1098,-0.1009,-0.0967,-0.0915,-0.089,-0.089,-0.09,-0.091,-0.0884,-0.0842,-0.0784,0,0,0,0,0,-0.0796,-0.0825,-0.0862,-0.0929,-0.0987,-0.1049,-0.1105,-0.1114,-0.116,-0.1193,-0.1165,-0.1138,-0.1097,-0.1057,-0.1009,-0.0964,-0.1045,-0.0993,-0.0998,-0.0982,-0.0957,-0.0937,-0.0939,-0.0945,-0.0946,-0.0947,-0.0948,0,-0.0784,-0.0809,-0.0878,-0.0914,-0.0947,-0.1014,-0.1062,-0.1114,-0.1142,-0.119,-0.1202,-0.1204,-0.1207,-0.1118,-0.1111,-0.1049,-0.1021,-0.102,-0.1004,-0.0973,-0.0951,-0.0951,-0.095,-0.0956,-0.0955,-0.0954,-0.0954,0,-0.0776,-0.0796,-0.0848,-0.0906,-0.0933,-0.0982,-0.1056,-0.1102,-0.1147,-0.1196,-0.1217,-0.1248,-0.1224,-0.1218,-0.1201,-0.116,-0.1117,-0.1072,-0.115,-0.113,-0.0967,-0.0963,-0.097,-0.0966,-0.0964,-0.0962,-0.096,0,-0.0755,-0.0797,-0.083,-0.0855,-0.0922,-0.0956,-0.1033,-0.1078,-0.1132,-0.1172,-0.1208,-0.1224,-0.1246,-0.1242,-0.1209,-0.114,-0.1199,-0.1066,-0.1043,-0.112,-0.1116,-0.1101,-0.1093,-0.1166,-0.1166,-0.1166,-0.1166,0,-0.0721,-0.0773,-0.0815,-0.0834,-0.0889,-0.0933,-0.0974,-0.1038,-0.1073,-0.1142,-0.1164,-0.1211,-0.1225,-0.1219,-0.118,-0.1171,-0.1174,-0.1157,-0.105,-0.1043,-0.1098,-0.1091,-0.1166,-0.1166,-0.1166,-0.1166,-0.1166,0,-0.0698,-0.0717,-0.0771,-0.0823,-0.084,-0.0884,-0.0961,-0.1003,-0.1063,-0.1083,-0.1123,-0.1131,-0.117,-0.1128,-0.1147,-0.1135,-0.1108,-0.109,-0.1089,-0.0991,-0.094,-0.0983,-0.1052,-0.1051,-0.105,-0.105,-0.1049,0,-0.0654,-0.0696,-0.0707,-0.0769,-0.0796,-0.082,-0.0869,-0.0913,-0.0942,-0.0991,-0.1007,-0.1053,-0.1029,-0.1046,-0.1056,-0.1055,-0.106,-0.1042,-0.1021,-0.102,-0.0932,-0.0975,-0.1043,-0.104,-0.1041,-0.1042,-0.1042,0,-0.0617,-0.0639,-0.065,-0.0671,-0.0708,-0.0732,-0.0784,-0.0834,-0.0873,-0.0898,-0.095,-0.0991,-0.099,-0.1003,-0.1001,-0.1008,-0.1042,-0.0978,-0.0977,-0.097,-0.1064,-0.0974,-0.097,-0.1035,-0.1037,-0.1038,-0.1036,0,-0.0578,-0.0603,-0.0617,-0.0649,-0.0672,-0.07,-0.0722,-0.0753,-0.0769,-0.0788,-0.0847,-0.0858,-0.0896,-0.0902,-0.0897,-0.0951,-0.0928,-0.0915,-0.0879,-0.0928,-0.0918,-0.0923,-0.0844,-0.0843,-0.0842,-0.0841,0,0,-0.0542,-0.0565,-0.0564,-0.0586,-0.0608,-0.061,-0.0644,-0.0663,-0.0696,-0.072,-0.0708,-0.0776,-0.0783,-0.0841,-0.086,-0.0858,-0.0852,-0.0843,-0.0901,-0.0908,-0.0914,-0.0908,-0.0914,-0.084,-0.0839,-0.0839,-0.0839,0,-0.0524,-0.0532,-0.0553,-0.0567,-0.0585,-0.0596,-0.0606,-0.0627,-0.0645,-0.0684,-0.0693,-0.0724,-0.0752,-0.0774,-0.0786,-0.0841,-0.0816,-0.0842,-0.0876,-0.0893,-0.0901,-0.0908,-0.0903,-0.0909,-0.0836,-0.0837,-0.0837,0,-0.0498,-0.0504,-0.0516,-0.0536,-0.0548,-0.0575,-0.0562,-0.0585,-0.0615,-0.0603,-0.0653,-0.0665,-0.0678,-0.0718,-0.0735,-0.0713,-0.0773,-0.0754,-0.0759,-0.0765,-0.0781,-0.0791,-0.0799,-0.0691,-0.069,-0.069,0,0,-0.0486,-0.0501,-0.0513,-0.0533,-0.0541,-0.0553,-0.0566,-0.0574,-0.0593,-0.0604,-0.0618,-0.0636,-0.0663,-0.0672,-0.0693,-0.0718,-0.0711,-0.0738,-0.0745,-0.075,-0.076,-0.0777,-0.0786,-0.0688,-0.0688,-0.0688,0,0,-0.0481,-0.0493,-0.0497,-0.0519,-0.0535,-0.0547,-0.0564,-0.0569,-0.0595,-0.06,-0.0602,-0.0606,-0.065,-0.0641,-0.0623,-0.0681,-0.0651,-0.0655,-0.0688,-0.0697,-0.0703,-0.0711,-0.0603,0,0,0,0,0,-0.0472,-0.0489,-0.0492,-0.0497,-0.0524,-0.0544,-0.0548,-0.0562,-0.0563,-0.0578,-0.0595,-0.0584,-0.0636,-0.062,-0.0623,-0.0651,-0.067,-0.0674,-0.0677,-0.0727,-0.0736,-0.0743,0,0,0,0,0,0,-0.0474,-0.0479,-0.0492,-0.0503,-0.051,-0.0543,-0.0538,-0.0542,-0.0562,-0.0564,-0.0581,-0.0583,-0.0584,-0.0618,-0.0621,-0.0647,-0.0602,-0.0672,-0.0674,-0.0677,-0.073,-0.0737,-0.0744,0,0,0,0,0,-0.0475,-0.0479,-0.052,-0.0503,-0.0509,-0.0528,-0.0538,-0.0541,-0.0561,-0.0566,-0.0569,-0.0572,-0.0583,-0.0587,-0.0619,-0.0647,-0.06,-0.0601,-0.0673,-0.0676,-0.0677,-0.0734,0,0,0,0,0,0,-0.0476,-0.0484,-0.0521,-0.0523,-0.0502,-0.0528,-0.0532,-0.0541,-0.0563,-0.0566,-0.0555,-0.0556,-0.0583,-0.0586,-0.0588,-0.0648,-0.0598,-0.0599,-0.06,-0.0675,-0.0677,-0.0678,0,0,0,0,0,0,-0.0481,-0.0485,-0.0522,-0.052,-0.0522,-0.0527,-0.0531,-0.0541,-0.0562,-0.055,-0.0552,-0.0555,-0.0578,-0.0585,-0.0587,-0.0603,-0.0597,-0.0598,-0.0599,-0.0599,-0.0676,-0.0678,0,0,0,0,0,0,-0.0483,-0.0487,-0.052,-0.0521,-0.0523,-0.0549,-0.0536,-0.0562,-0.0564,-0.0549,-0.0564,-0.0564,-0.0577,-0.0579,-0.0586,-0.0601,-0.0603,-0.0597,-0.0598,-0.0598,-0.0599,0,0,0,0,0,0,0,-0.0485,-0.0458,-0.0508,-0.0522,-0.0524,-0.0543,-0.0543,-0.0544,-0.0564,-0.0564,-0.0564,-0.0564,-0.0592,-0.0593,-0.0594,-0.06,0,0,-0.0597,-0.0598,0,0,0,0,0,0,0,0,-0.0457,-0.0458,-0.0508,-0.0508,-0.0509,-0.0543,-0.0543,-0.0544,-0.0564,-0.0564,-0.0564,-0.0564,-0.0592,-0.0593,-0.0594,0,0,0,0,0,0,0,0,0,0,0,0,0,0,0,-0.0508,-0.0508,0,-0.0543,-0.0543,-0.0544,-0.0564,-0.0564,-0.0564,-0.0564,-0.0592,-0.0593,-0.0594,0,0,0,0,0,0,0,0,0,0,0,0,0,0,0,0,0,0,0,0,0,0,0,0,0,0,0,0,0,0,0,0,0,0,0,0,0,0,0,0,0,0,0,0,0,0,0,0,0,0,0,0,0,0,0,0,0,0,0,0,0,0,0,0,0,0,0,0,0]}]]]